Previsão horária em Almaya

Hoje, 25 Junho, Sexta-feira

Tempo Temperatura Precipitação Vento Pressão Humidade
00:00 +11°C° 0.1 mm 1 m/s 543 mmHg 91%
01:00 +11°C° 0.1 mm 1 m/s 542 mmHg 91%
02:00 +10°C° 0.1 mm 1 m/s 542 mmHg 90%
03:00 +10°C° 0 mm 1 m/s 542 mmHg 89%
04:00 +10°C° 0 mm 1 m/s 542 mmHg 89%
05:00 +10°C° 0 mm 1 m/s 542 mmHg 89%
06:00 +11°C° 0 mm 1 m/s 543 mmHg 82%
07:00 +13°C° 0 mm 1 m/s 544 mmHg 76%
08:00 +15°C° 0 mm 1 m/s 545 mmHg 70%
09:00 +16°C° 0.2 mm 1 m/s 545 mmHg 66%
10:00 +17°C° 0.2 mm 2 m/s 545 mmHg 63%
11:00 +18°C° 0.2 mm 2 m/s 545 mmHg 59%
12:00 +17°C° 0.9 mm 2 m/s 544 mmHg 62%
13:00 +17°C° 0.9 mm 2 m/s 544 mmHg 65%
14:00 +17°C° 0.9 mm 2 m/s 543 mmHg 68%
15:00 +16°C° 1.2 mm 2 m/s 543 mmHg 72%
16:00 +15°C° 1.2 mm 2 m/s 542 mmHg 77%
17:00 +14°C° 1.2 mm 2 m/s 542 mmHg 81%
18:00 +13°C° 1.3 mm 1 m/s 542 mmHg 85%
19:00 +12°C° 1.3 mm 1 m/s 542 mmHg 89%
20:00 +11°C° 1.3 mm 1 m/s 542 mmHg 93%
21:00 +11°C° 3.5 mm 1 m/s 542 mmHg 93%
22:00 +11°C° 3.5 mm 1 m/s 542 mmHg 93%
23:00 +9°C° 3.5 mm 2 m/s 542 mmHg 93%

Amanhã, 26 Junho, Sábado

Tempo Temperatura Precipitação Vento Pressão Humidade
00:00 +10°C° 0.3 mm 1 m/s 542 mmHg 93%
01:00 +10°C° 0.3 mm 1 m/s 542 mmHg 92%
02:00 +10°C° 0.3 mm 1 m/s 541 mmHg 91%
03:00 +10°C° 0 mm 1 m/s 541 mmHg 91%
04:00 +9°C° 0 mm 1 m/s 541 mmHg 91%
05:00 +9°C° 0 mm 1 m/s 541 mmHg 91%
06:00 +10°C° 0 mm 1 m/s 541 mmHg 85%
07:00 +12°C° 0 mm 1 m/s 542 mmHg 79%
08:00 +14°C° 0 mm 2 m/s 543 mmHg 73%
09:00 +15°C° 0.1 mm 2 m/s 543 mmHg 68%
10:00 +16°C° 0.1 mm 3 m/s 544 mmHg 63%
11:00 +17°C° 0.1 mm 4 m/s 544 mmHg 58%
12:00 +17°C° 0 mm 4 m/s 544 mmHg 57%
13:00 +17°C° 0 mm 3 m/s 543 mmHg 56%
14:00 +17°C° 0 mm 3 m/s 543 mmHg 55%
15:00 +16°C° 0 mm 3 m/s 542 mmHg 61%
16:00 +14°C° 0 mm 3 m/s 542 mmHg 66%
17:00 +14°C° 0 mm 2 m/s 542 mmHg 72%
18:00 +13°C° 0 mm 2 m/s 542 mmHg 77%
19:00 +12°C° 0 mm 2 m/s 542 mmHg 82%
20:00 +11°C° 0 mm 1 m/s 542 mmHg 88%
21:00 +11°C° 0.1 mm 1 m/s 542 mmHg 89%
22:00 +11°C° 0.1 mm 1 m/s 541 mmHg 90%
23:00 +10°C° 0.1 mm 2 m/s 541 mmHg 91%

Depois de amanhã, 27 Junho, Domingo

Tempo Temperatura Precipitação Vento Pressão Humidade
00:00 +10°C° 0 mm 2 m/s 541 mmHg 91%
01:00 +10°C° 0 mm 1 m/s 540 mmHg 92%
02:00 +10°C° 0 mm 1 m/s 540 mmHg 92%
03:00 +10°C° 0 mm 1 m/s 540 mmHg 92%
04:00 +10°C° 0 mm 1 m/s 540 mmHg 93%
05:00 +10°C° 0 mm 1 m/s 540 mmHg 93%
06:00 +11°C° 0 mm 1 m/s 541 mmHg 90%
07:00 +12°C° 0 mm 1 m/s 541 mmHg 86%
08:00 +12°C° 0 mm 1 m/s 542 mmHg 83%
09:00 +14°C° 0.1 mm 2 m/s 542 mmHg 77%
10:00 +15°C° 0.1 mm 2 m/s 543 mmHg 72%
11:00 +16°C° 0.1 mm 2 m/s 543 mmHg 67%
12:00 +15°C° 0.5 mm 2 m/s 542 mmHg 73%
13:00 +13°C° 0.5 mm 3 m/s 542 mmHg 78%
14:00 +12°C° 0.5 mm 3 m/s 541 mmHg 84%
15:00 +13°C° 0.5 mm 2 m/s 541 mmHg 86%
16:00 +12°C° 0.5 mm 2 m/s 541 mmHg 87%
17:00 +12°C° 0.5 mm 2 m/s 540 mmHg 89%
18:00 +10°C° 0.2 mm 2 m/s 540 mmHg 90%
19:00 +10°C° 0.2 mm 2 m/s 541 mmHg 91%
20:00 +10°C° 0.2 mm 2 m/s 541 mmHg 92%
21:00 +9°C° 0 mm 2 m/s 541 mmHg 92%
22:00 +10°C° 0 mm 1 m/s 541 mmHg 93%
23:00 +10°C° 0 mm 1 m/s 541 mmHg 93%

28 Junho, Segunda-feira

Tempo Temperatura Precipitação Vento Pressão Humidade
00:00 +10°C° 0.4 mm 1 m/s 540 mmHg 93%
01:00 +10°C° 0.4 mm 1 m/s 540 mmHg 93%
02:00 +10°C° 0.4 mm 1 m/s 540 mmHg 94%
03:00 +10°C° 0.9 mm 1 m/s 540 mmHg 94%
04:00 +10°C° 0.9 mm 1 m/s 540 mmHg 95%
05:00 +10°C° 0.9 mm 1 m/s 540 mmHg 96%
06:00 +10°C° 1 mm 1 m/s 540 mmHg 95%
07:00 +9°C° 1 mm 2 m/s 540 mmHg 94%
08:00 +10°C° 1 mm 2 m/s 541 mmHg 93%
09:00 +10°C° 1.1 mm 2 m/s 541 mmHg 92%
10:00 +10°C° 1.1 mm 2 m/s 541 mmHg 91%
11:00 +11°C° 1.1 mm 1 m/s 541 mmHg 90%
12:00 +11°C° 0.8 mm 1 m/s 541 mmHg 91%
13:00 +11°C° 0.8 mm 1 m/s 540 mmHg 92%
14:00 +11°C° 0.8 mm 1 m/s 540 mmHg 92%
15:00 +11°C° 1.1 mm 1 m/s 540 mmHg 93%
16:00 +11°C° 1.1 mm 1 m/s 540 mmHg 94%
17:00 +10°C° 1.1 mm 1 m/s 540 mmHg 96%
18:00 +10°C° 0.8 mm 1 m/s 540 mmHg 96%
19:00 +10°C° 0.8 mm 1 m/s 541 mmHg 96%
20:00 +10°C° 0.8 mm 1 m/s 541 mmHg 96%
21:00 +10°C° 0.2 mm 1 m/s 541 mmHg 96%
22:00 +10°C° 0.2 mm 1 m/s 541 mmHg 95%
23:00 +10°C° 0.2 mm 1 m/s 541 mmHg 95%

29 Junho, Terça-feira

Tempo Temperatura Precipitação Vento Pressão Humidade
00:00 +10°C° 0.1 mm 1 m/s 541 mmHg 95%
01:00 +10°C° 0.1 mm 1 m/s 540 mmHg 95%
02:00 +10°C° 0.1 mm 1 m/s 540 mmHg 95%
03:00 +9°C° 0.3 mm 0 m/s 540 mmHg 95%
04:00 +9°C° 0.3 mm 0 m/s 540 mmHg 95%
05:00 +9°C° 0.3 mm 0 m/s 541 mmHg 96%
06:00 +10°C° 0.3 mm 0 m/s 541 mmHg 94%
07:00 +10°C° 0.3 mm 0 m/s 541 mmHg 93%
08:00 +11°C° 0.3 mm 1 m/s 542 mmHg 91%
09:00 +12°C° 0.1 mm 1 m/s 542 mmHg 87%
10:00 +13°C° 0.1 mm 1 m/s 542 mmHg 83%
11:00 +14°C° 0.1 mm 1 m/s 543 mmHg 78%
12:00 +15°C° 0.3 mm 2 m/s 543 mmHg 77%
13:00 +15°C° 0.3 mm 2 m/s 542 mmHg 76%
14:00 +15°C° 0.3 mm 2 m/s 542 mmHg 75%
15:00 +15°C° 0.3 mm 2 m/s 542 mmHg 79%
16:00 +14°C° 0.3 mm 2 m/s 542 mmHg 83%
17:00 +13°C° 0.3 mm 2 m/s 542 mmHg 87%
18:00 +13°C° 0.4 mm 1 m/s 542 mmHg 89%
19:00 +12°C° 0.4 mm 1 m/s 542 mmHg 92%
20:00 +11°C° 0.4 mm 1 m/s 542 mmHg 94%
21:00 +11°C° 0.6 mm 1 m/s 542 mmHg 94%
22:00 +11°C° 0.6 mm 1 m/s 542 mmHg 94%
23:00 +11°C° 0.6 mm 1 m/s 542 mmHg 95%

30 Junho, Quarta-feira

Tempo Temperatura Precipitação Vento Pressão Humidade
00:00 +10°C° 0.3 mm 0 m/s 542 mmHg 95%
01:00 +10°C° 0.3 mm 0 m/s 541 mmHg 95%
02:00 +10°C° 0.3 mm 0 m/s 541 mmHg 96%
03:00 +10°C° 0.1 mm 0 m/s 541 mmHg 96%
04:00 +10°C° 0.1 mm 0 m/s 541 mmHg 96%
05:00 +10°C° 0.1 mm 0 m/s 541 mmHg 96%
06:00 +11°C° 0 mm 0 m/s 542 mmHg 92%
07:00 +11°C° 0 mm 0 m/s 542 mmHg 89%
08:00 +12°C° 0 mm 0 m/s 543 mmHg 86%
09:00 +13°C° 0.3 mm 0 m/s 543 mmHg 82%
10:00 +15°C° 0.3 mm 1 m/s 544 mmHg 78%
11:00 +16°C° 0.3 mm 1 m/s 544 mmHg 74%
12:00 +16°C° 0.6 mm 1 m/s 543 mmHg 75%
13:00 +16°C° 0.6 mm 1 m/s 543 mmHg 76%
14:00 +16°C° 0.6 mm 1 m/s 543 mmHg 76%
15:00 +16°C° 1 mm 1 m/s 542 mmHg 80%
16:00 +15°C° 1 mm 1 m/s 542 mmHg 84%
17:00 +14°C° 1 mm 1 m/s 542 mmHg 88%
18:00 +14°C° 4.3 mm 1 m/s 542 mmHg 90%
19:00 +13°C° 4.3 mm 1 m/s 542 mmHg 93%
20:00 +12°C° 4.3 mm 1 m/s 541 mmHg 95%
21:00 +12°C° 4.8 mm 1 m/s 542 mmHg 95%
22:00 +12°C° 4.8 mm 1 m/s 542 mmHg 94%
23:00 +11°C° 4.8 mm 1 m/s 542 mmHg 93%
Mostrar mais